Miscellaneous Local Product
Issued by NWS Hastings, NE

Home | Current Version | Previous Version | Graphics & Text | Print | Product List | Glossary On
Versions: 1 2 3 4 5 6 7 8 9 10 11 12 13 14 15 16 17 18 19 20 21 22 23 24 25 26 27 28 29 30 31 32 33 34 35 36 37 38 39 40 41 42 43 44 45 46 47 48 49 50
000
AXUS43 KGID 261702
MISGRI

GID CWA HOURLY WEATHER ROUNDUP
NATIONAL WEATHER SERVICE HASTINGS NE
1100 AM CST WED NOV 26 2014

NOTE: "FAIR" INDICATES FEW OR NO CLOUDS BELOW 12,000 FEET WITH NO
SIGNIFICANT WEATHER AND/OR OBSTRUCTIONS TO VISIBILITY.

...SOUTH CENTRAL NEBRASKA...

CITY           SKY/WX    TMP DP  RH WIND       PRES   REMARKS
GRAND ISLAND   CLOUDY    28  19  69 N23G38    30.21R WCI  14
HASTINGS       CLOUDY    29  19  66 N29G38    30.19R WCI  14
KEARNEY        CLOUDY    28  18  64 W26G35    30.22R WCI  13
ORD            CLOUDY    25  17  72 NW23G32   30.24R WCI  10
YORK           CLOUDY    28  21  74 N21G30    30.15R WCI  15
AURORA         CLOUDY    29  20  71 N28G36    30.18R WCI  13
LEXINGTON      PTSUNNY   32  22  66 N26G33    30.24R WCI  18
HOLDREGE       CLOUDY    32  20  63 N22G35    30.21R WCI  19
HEBRON         CLOUDY    32  22  68 NW21G32   30.15R WCI  20

...NEBRASKA PANHANDLE...

CITY           SKY/WX    TMP DP  RH WIND       PRES   REMARKS
CHADRON        CLOUDY    37  21  52 CALM      30.27R
ALLIANCE       LGT SNOW  28  22  78 CALM      30.24R
SCOTTSBLUFF    SNOW      30  28  92 W6        30.25R VSB 1/2 WCI  24
SIDNEY         MIX PCPN  27  24  89 CALM      30.24S

...WESTERN AND NORTH CENTRAL NEBRASKA...

CITY           SKY/WX    TMP DP  RH WIND       PRES   REMARKS
VALENTINE      CLOUDY    24  17  74 NE10      30.29R WCI  14
AINSWORTH      CLOUDY    22  18  83 N14       30.28R WCI   9
ONEILL         CLOUDY    23  21  92 NW22      30.25R WCI   8
BROKEN BOW     CLOUDY    26  19  74 N25       30.24R WCI  11
IMPERIAL       CLOUDY    32  19  58 N18       30.27R WCI  20
NORTH PLATTE   CLOUDY    31  19  61 N17G25    30.26R WCI  19
MCCOOK         CLOUDY    34  19  54 N21G29    30.26R WCI  22

...EASTERN NEBRASKA...

CITY           SKY/WX    TMP DP  RH WIND       PRES   REMARKS
NORFOLK        CLOUDY    24  19  81 NW24G31   30.18R WCI   8
SO SIOUX CITY  CLOUDY    29  22  75 N29G37    30.14R WCI  14
TEKAMAH        CLOUDY    32  26  78 N29G37    30.10R WCI  18
COLUMBUS       CLOUDY    27  18  69 N24G31    30.17R WCI  12
ALBION         CLOUDY    26  19  74 N23G33    30.18R WCI  11
OMAHA EPPLEY   FLURRIES  33  28  81 N23G32    30.06R WCI  21
OFFUTT AFB     CLOUDY    35  28  76 N23G36    30.04R WCI  23
MILLARD        CLOUDY    35  29  79 NW20G29   30.05R WCI  24
LINCOLN        CLOUDY    31  24  75 NW29G37   30.12R WCI  16
NEBRASKA CITY  CLOUDY    34  31  88 NW21G32   30.02R FOG     WCI  23
BEATRICE       CLOUDY    32  26  78 NW25G37   30.11R WCI  18
FALLS CITY     CLOUDY    37  30  75 NW24G38   30.02R WCI  26

...NORTHERN KANSAS...

CITY           SKY/WX    TMP DP  RH WIND       PRES   REMARKS
GOODLAND       CLOUDY    34  29  82 N16G23    30.27R WCI  24
HILL CITY      PTSUNNY   37  19  48 N25G37    30.25R WCI  25
NORTON         SUNNY     34  18  51 NW26G32   30.24R WCI  21
PHILLIPSBURG   SUNNY     37  23  56 NW29G36   30.22R WCI  25
SMITH CENTER   SUNNY     34  21  60 NW29G36   30.20R WCI  20
BELOIT         CLOUDY    37  23  56 NW25G33   30.18S WCI  26
HAYS           PTSUNNY   37  18  44 N29G35    30.23R WCI  25
RUSSELL        MOSUNNY   40  22  48 NW25G35   30.21R WCI  29
CONCORDIA      CLOUDY    35  25  66 N17G31    30.16R WCI  25
SALINA         MOSUNNY   44  22  41 NW30      30.15R
TOPEKA         PTSUNNY   44  28  53 NW26G37   30.06R



USA.gov is the U.S. government's official web portal to all federal, state and local government web resources and services.